[[{"header":{"parameterUnit":"m.s-1","parameterCategory":1,"la1":30.2991,"la2":30.254,"lo1":-89.0895,"lo2":-89.0444,"dx":0.0017,"dy":0.0017,"nx":28,"ny":28,"refTime":"2022-11-18T15:00:00:Z","depth":0,"parameterNumber":2,"parameterNumberName":"U-component_of_WINDS"},"data":[0,0,0,0,0,0,0,0,0,0,0,0,0,0,0,0,0,0,0,0,0,0,0,0,0,0,0,0,0,0,0,0,0,0,0,0,0,0,0,0,0,0,0,0,0,0,0,0,0,0,0,0,0,0,0,0,0,0,-2.933,-2.933,0,-2.9365,-2.9366,-2.9366,-2.9269,-2.9266,-2.9263,-2.926,-2.9298,-2.9302,-2.9306,0,0,0,0,0,0,0,0,0,0,0,0,0,-2.9177,-2.918,-2.933,-2.933,-2.933,-2.9365,-2.9366,-2.9366,-2.927,-2.9266,-2.9263,-2.9259,-2.9297,-2.9301,-2.9306,0,0,0,0,0,0,0,0,0,0,0,0,0,-2.9231,-2.9181,-2.9329,-2.9286,-2.9283,-2.9365,-2.9366,-2.9366,-2.9271,-2.9266,-2.9262,-2.9257,-2.9295,-2.9301,-2.9307,-2.9432,0,0,-2.9324,-2.9326,0,0,0,0,0,0,0,0,-2.9228,-2.9237,-2.9292,-2.929,-2.9286,-2.9308,-2.9326,-2.9389,-2.9272,-2.9275,-2.926,-2.9255,-2.9305,-2.931,-2.9326,-2.9434,-2.9436,-2.9324,-2.9328,-2.933,-2.9332,0,0,0,0,0,0,0,-2.9224,-2.9235,-2.9344,-2.9293,-2.9289,-2.9265,-2.9268,-2.9337,-2.9315,-2.9275,-2.9268,-2.9273,-2.9302,-2.9321,-2.9327,-2.9436,-2.9324,-2.9329,-2.9333,-2.9335,-2.9646,-2.9651,0,0,0,0,0,0,-2.9226,-2.9232,-2.9342,-2.9345,-2.9245,-2.9272,-2.9275,-2.9306,-2.9314,-2.9311,-2.9277,-2.9269,-2.9314,-2.932,-2.9328,-2.9474,-2.933,-2.9336,-2.9339,-2.9641,-2.9647,-2.9652,0,0,0,0,0,0,-2.9223,-2.9237,-2.9341,-2.9287,-2.9298,-2.9279,-2.9315,-2.9309,-2.9327,-2.9316,-2.9312,-2.93,-2.931,-2.932,-2.9406,-2.9474,-2.9338,-2.9343,-2.9636,-2.9643,-2.965,-2.9768,0,0,0,0,0,0,-2.9219,-2.9237,-2.9285,-2.9288,-2.9301,-2.942,-2.9319,-2.9313,-2.9337,-2.9327,-2.9337,-2.9334,-2.9307,-2.9398,-2.9412,-2.9479,-2.9348,-2.9629,-2.9639,-2.9647,-2.9758,-2.9778,-2.9796,0,0,0,0,0,-2.9214,-2.9317,-2.9287,-2.9301,-2.9361,-2.9424,-2.9431,-2.9399,-2.9343,-2.9391,-2.9383,-2.9334,-2.9464,-2.9408,-2.9423,-2.9492,-2.9625,-2.9636,-2.9647,-2.975,-2.9774,-2.9796,0,0,0,0,0,0,-2.9323,-2.9317,-2.9284,-2.9391,-2.9409,-2.9408,-2.9467,-2.9426,-2.946,-2.9449,-2.9407,-2.941,-2.9504,-2.9507,-2.9445,-2.9613,-2.9535,-2.9549,-2.9608,-2.9632,-2.965,-2.9648,-2.9353,0,0,0,0,0,-2.9359,-2.9411,-2.9403,-2.9498,-2.9509,-2.9487,-2.9513,-2.9486,-2.9502,-2.951,-2.9508,-2.9526,-2.9571,-2.9602,-2.9642,-2.9758,-2.9758,-2.9813,-2.9832,-2.9847,-2.986,-2.992,-2.9943,-2.9688,-2.9688,-2.9688,0,0,-2.9435,-2.9438,-2.9473,-2.952,-2.953,-2.9584,-2.9493,-2.9555,-2.9594,-2.9519,-2.96,-2.96,-2.9617,-2.9719,-2.9763,-2.9724,-2.9931,-2.9861,-2.9874,-2.9878,-2.9933,-2.9957,-2.9979,-2.9695,-2.9694,-2.9693,0,0,-2.96,-2.9608,-2.9687,-2.9699,-2.9716,-2.97,-2.9719,-2.9724,-2.972,-2.9801,-2.9745,-2.9791,-2.987,-2.9884,-2.9901,-3.007,-3.0025,-3.0084,-3.0183,-3.0241,-3.0261,-3.0279,-3.0338,-3.0359,-3.0097,-3.0097,-3.0097,0,-2.9692,-2.9771,-2.9734,-2.9798,-2.982,-2.9753,-2.9832,-2.9846,-2.9875,-2.9891,-2.9847,-2.9942,-2.9949,-3.0052,-3.0093,-3.011,-3.0129,-3.0083,-3.0261,-3.0279,-3.0295,-3.035,-3.0372,-3.0104,-3.0103,-3.0103,-3.0102,0,-2.9883,-2.9939,-3.0001,-3.0029,-3.0058,-3.013,-3.0103,-3.0136,-3.0106,-3.0095,-3.0177,-3.0183,-3.0223,-3.0245,-3.0217,-3.0344,-3.0318,-3.0269,-3.0189,-3.0327,-3.0378,-3.0399,-3.0114,-3.0112,-3.011,-3.0108,0,0,-3.0119,-3.0124,-3.0147,-3.0159,-3.0171,-3.0213,-3.0281,-3.0319,-3.0348,-3.037,-3.0426,-3.0493,-3.0446,-3.0466,-3.0439,-3.049,-3.0621,-3.0433,-3.0433,-3.0467,-3.0758,-3.0795,-3.0821,-3.0591,-3.0595,-3.0598,-3.0757,0,-3.028,-3.0397,-3.0364,-3.0481,-3.0531,-3.0467,-3.0526,-3.054,-3.0531,-3.0572,-3.0561,-3.0609,-3.0544,-3.0556,-3.0604,-3.0595,-3.0679,-3.0583,-3.0642,-3.0644,-3.0639,-3.0848,-3.0887,-3.1036,-3.0777,-3.078,-3.0782,0,-3.0485,-3.0514,-3.0635,-3.0637,-3.0657,-3.0711,-3.0742,-3.0782,-3.0796,-3.0785,-3.0807,-3.0768,-3.0835,-3.0755,-3.0845,-3.078,-3.0802,-3.0801,-3.0806,-3.081,-3.0721,-3.0856,-3.1083,-3.1106,-3.0814,-3.0811,-3.0809,0,-3.0643,-3.0712,-3.0793,-3.0805,-3.081,-3.0849,-3.0853,-3.0862,-3.0886,-3.0913,-3.0928,-3.0964,-3.0983,-3.101,-3.0982,-3.0927,-3.1076,-3.0994,-3.1069,-3.1069,-3.1103,-3.1101,-3.1336,-3.1119,-3.1118,-3.1118,-3.1117,0,-3.0827,-3.0904,-3.0864,-3.0914,-3.0997,-3.0958,-3.1041,-3.1038,-3.1046,-3.1093,-3.1041,-3.1087,-3.1047,-3.1089,-3.1067,-3.1144,-3.1154,-3.1146,-3.114,-3.1151,-3.1152,-3.1164,-3.1153,-3.1124,-3.1122,-3.1121,-3.112,0,-3.1018,-3.0994,-3.1078,-3.1075,-3.1076,-3.1137,-3.1134,-3.118,-3.1166,-3.1227,-3.1239,-3.1218,-3.1264,-3.1239,-3.1287,-3.1272,-3.1371,-3.1351,-3.1367,-3.1361,-3.1436,-3.1429,-3.1687,-3.1718,-3.1482,-3.1484,-3.1486,0,-3.1136,-3.1193,-3.1196,-3.1223,-3.123,-3.1276,-3.13,-3.1263,-3.129,-3.1309,-3.1352,-3.1394,-3.1425,-3.1502,-3.1491,-3.1527,-3.1506,-3.1594,-3.1511,-3.152,-3.1506,-3.1502,-3.1507,-3.161,-3.1613,-3.1616,-3.1617,0,-3.1349,-3.1334,-3.137,-3.1402,-3.1432,-3.1456,-3.1476,-3.1501,-3.1465,-3.1498,-3.1544,-3.1568,-3.1616,-3.1658,-3.1688,-3.1691,-3.1649,-3.1643,-3.1662,-3.1674,-3.168,-3.1676,-3.1411,-3.1638,-3.1636,-3.1634,-3.1633,-3.1632,-3.1506,-3.1553,-3.1561,-3.1603,-3.1613,-3.1632,-3.1674,-3.1665,-3.1703,-3.1739,-3.1715,-3.1769,-3.1779,-3.1815,-3.1824,-3.1865,-3.183,-3.1858,-3.1865,-3.1872,-3.1881,-3.1674,-3.1871,-3.187,-3.187,-3.1869,-3.1869,0,-3.1714,-3.1716,-3.1755,-3.1783,-3.1815,-3.1771,-3.179,-3.182,-3.1868,-3.1881,-3.1912,-3.1965,-3.2004,-3.1996,-3.2031,-3.2066,-3.2047,-3.2076,-3.2073,-3.2074,-3.1912,-3.1891,-3.2091,-3.2091,-3.2091,-3.2091,-3.2091,-3.2091,-3.1826,-3.1902,-3.1888,-3.1969,-3.197,-3.2022,-3.2036,-3.2053,-3.2062,-3.2123,-3.2155,-3.2149,-3.2153,-3.2188,-3.2222,-3.2218,-3.2233,-3.227,-3.2259,-3.2108,-3.2086,-3.2065,-3.2045,-3.2274,-3.2274,-3.2417,-3.2419,-3.242]},{"header":{"parameterUnit":"m.s-1","parameterCategory":1,"la1":30.2991,"la2":30.254,"lo1":-89.0895,"lo2":-89.0444,"dx":0.0017,"dy":0.0017,"nx":28,"ny":28,"refTime":"2022-11-18T15:00:00:Z","depth":0,"parameterNumber":3,"parameterNumberName":"V-component_of_WINDS"},"data":[0,0,0,0,0,0,0,0,0,0,0,0,0,0,0,0,0,0,0,0,0,0,0,0,0,0,0,0,0,0,0,0,0,0,0,0,0,0,0,0,0,0,0,0,0,0,0,0,0,0,0,0,0,0,0,0,0,0,-4.3893,-4.3893,0,-4.3968,-4.3968,-4.3969,-4.3921,-4.3919,-4.3916,-4.3914,-4.3987,-4.3991,-4.3995,0,0,0,0,0,0,0,0,0,0,0,0,0,-4.3702,-4.3706,-4.3892,-4.3893,-4.3894,-4.3967,-4.3969,-4.397,-4.3921,-4.3918,-4.3916,-4.3913,-4.3986,-4.3991,-4.3996,0,0,0,0,0,0,0,0,0,0,0,0,0,-4.3781,-4.3707,-4.3892,-4.3879,-4.3879,-4.3967,-4.3969,-4.397,-4.3922,-4.3918,-4.3915,-4.3912,-4.3984,-4.399,-4.3996,-4.4101,0,0,-4.4015,-4.4017,0,0,0,0,0,0,0,0,-4.3777,-4.3788,-4.388,-4.388,-4.388,-4.3931,-4.3928,-4.4014,-4.3923,-4.3905,-4.3914,-4.391,-4.3971,-4.3978,-4.3999,-4.4104,-4.4107,-4.4015,-4.4019,-4.4022,-4.4023,0,0,0,0,0,0,0,-4.3772,-4.3785,-4.3922,-4.3881,-4.3881,-4.3868,-4.3875,-4.3944,-4.3956,-4.3907,-4.3903,-4.3913,-4.397,-4.3994,-4.4001,-4.4109,-4.4015,-4.4021,-4.4024,-4.4027,-4.4299,-4.4303,0,0,0,0,0,0,-4.3768,-4.3781,-4.392,-4.3924,-4.3819,-4.3874,-4.3882,-4.3918,-4.3955,-4.3958,-4.3916,-4.391,-4.3985,-4.3994,-4.4003,-4.4126,-4.4022,-4.4027,-4.4031,-4.4296,-4.43,-4.4304,0,0,0,0,0,0,-4.3764,-4.3781,-4.3917,-4.3852,-4.3868,-4.3881,-4.3921,-4.3921,-4.3945,-4.3962,-4.3964,-4.3938,-4.3983,-4.3995,-4.4076,-4.4128,-4.403,-4.4035,-4.4291,-4.4297,-4.4302,-4.4373,0,0,0,0,0,0,-4.3759,-4.378,-4.3821,-4.3853,-4.3872,-4.3991,-4.3925,-4.3925,-4.3956,-4.395,-4.3983,-4.3985,-4.3981,-4.4068,-4.4083,-4.4134,-4.404,-4.4287,-4.4294,-4.43,-4.4366,-4.438,-4.4392,0,0,0,0,0,-4.3752,-4.3838,-4.3823,-4.384,-4.3924,-4.3994,-4.4004,-4.3998,-4.396,-4.4001,-4.4011,-4.3984,-4.412,-4.4077,-4.4093,-4.4147,-4.4284,-4.4292,-4.43,-4.436,-4.4377,-4.4392,0,0,0,0,0,0,-4.381,-4.3842,-4.3826,-4.3925,-4.3957,-4.3985,-4.4036,-4.4017,-4.406,-4.4052,-4.4042,-4.405,-4.4135,-4.4149,-4.41,-4.4248,-4.4195,-4.4207,-4.4236,-4.4252,-4.4265,-4.4259,-4.4045,0,0,0,0,0,-4.3835,-4.3891,-4.3914,-4.3999,-4.4016,-4.4024,-4.4054,-4.4047,-4.4079,-4.4092,-4.4109,-4.414,-4.4189,-4.4222,-4.4268,-4.4368,-4.4373,-4.4413,-4.4426,-4.4437,-4.4447,-4.4498,-4.4515,-4.4331,-4.4331,-4.433,0,0,-4.3886,-4.391,-4.3946,-4.4012,-4.4036,-4.4091,-4.4035,-4.4097,-4.4138,-4.4101,-4.4179,-4.4192,-4.4226,-4.4317,-4.4357,-4.4331,-4.4499,-4.4447,-4.4456,-4.446,-4.4508,-4.4525,-4.4541,-4.4336,-4.4335,-4.4334,0,0,-4.4007,-4.4032,-4.4104,-4.4129,-4.4166,-4.417,-4.4188,-4.4219,-4.4226,-4.4305,-4.4277,-4.4324,-4.441,-4.4435,-4.4458,-4.4586,-4.4562,-4.4602,-4.4669,-4.4719,-4.4733,-4.4746,-4.4789,-4.4805,-4.4612,-4.4612,-4.4612,0,-4.4065,-4.415,-4.4143,-4.4207,-4.4235,-4.4205,-4.4277,-4.4301,-4.4351,-4.437,-4.4341,-4.4446,-4.4467,-4.4562,-4.4593,-4.4614,-4.4631,-4.4597,-4.4732,-4.4745,-4.4757,-4.4797,-4.4814,-4.4616,-4.4616,-4.4615,-4.4615,0,-4.4218,-4.4277,-4.433,-4.438,-4.4414,-4.4482,-4.4483,-4.4519,-4.4508,-4.4515,-4.4593,-4.4617,-4.4667,-4.4689,-4.4679,-4.4781,-4.4764,-4.4734,-4.468,-4.4779,-4.4817,-4.4833,-4.4623,-4.4621,-4.462,-4.4619,0,0,-4.4378,-4.4422,-4.4441,-4.4462,-4.45,-4.4545,-4.4609,-4.4659,-4.4688,-4.4723,-4.4775,-4.4848,-4.482,-4.4846,-4.4839,-4.4883,-4.498,-4.4847,-4.4848,-4.4869,-4.509,-4.5111,-4.5129,-4.4964,-4.4967,-4.497,-4.5086,0,-4.4499,-4.4613,-4.4608,-4.4714,-4.4766,-4.4738,-4.4793,-4.4822,-4.4829,-4.4873,-4.4881,-4.4931,-4.4892,-4.4907,-4.495,-4.4959,-4.5023,-4.4951,-4.501,-4.5012,-4.5001,-4.515,-4.5172,-4.5281,-4.5101,-4.5104,-4.5106,0,-4.4655,-4.4696,-4.4807,-4.4835,-4.4857,-4.4907,-4.495,-4.4994,-4.5024,-4.5026,-4.5056,-4.5041,-4.5103,-4.5049,-4.5134,-4.5085,-4.5109,-4.5117,-4.5121,-4.5125,-4.5064,-4.5155,-4.5316,-4.5332,-4.513,-4.5128,-4.5126,0,-4.4757,-4.484,-4.4916,-4.4935,-4.497,-4.5006,-4.5022,-4.5049,-4.5078,-4.5116,-4.5134,-4.5178,-4.5202,-4.5236,-4.5232,-4.5193,-4.5317,-4.5264,-4.5319,-4.5319,-4.5344,-4.5342,-4.5509,-4.5364,-4.5364,-4.5364,-4.5363,0,-4.4892,-4.496,-4.4962,-4.5009,-4.5083,-4.5077,-4.515,-4.5162,-4.5187,-4.5233,-4.5212,-4.5256,-4.5249,-4.5293,-4.529,-4.5359,-4.5371,-4.5373,-4.5371,-4.5373,-4.5373,-4.5387,-4.5379,-4.5368,-4.5367,-4.5366,-4.5365,0,-4.5018,-4.5022,-4.5103,-4.513,-4.5138,-4.5191,-4.5213,-4.5256,-4.5261,-4.5321,-4.5334,-4.5342,-4.5392,-4.5392,-4.545,-4.5448,-4.5531,-4.5522,-4.5521,-4.5519,-4.5572,-4.5566,-4.5753,-4.5776,-4.5618,-4.5619,-4.5621,0,-4.5102,-4.5154,-4.5186,-4.5216,-4.5234,-4.5284,-4.5313,-4.5308,-4.5339,-4.5376,-4.5414,-4.5462,-4.55,-4.5581,-4.5591,-4.5634,-4.5624,-4.5686,-4.563,-4.563,-4.5621,-4.5617,-4.5621,-4.5696,-4.5698,-4.5699,-4.5701,0,-4.525,-4.5249,-4.5293,-4.5338,-4.5373,-4.5408,-4.544,-4.5465,-4.5463,-4.5499,-4.555,-4.558,-4.5638,-4.5685,-4.5726,-4.574,-4.5719,-4.5718,-4.5733,-4.5735,-4.5731,-4.5731,-4.5549,-4.5714,-4.5712,-4.5711,-4.5711,-4.571,-4.5356,-4.54,-4.5428,-4.5477,-4.5501,-4.553,-4.5571,-4.5582,-4.5625,-4.5672,-4.5666,-4.5722,-4.5749,-4.5802,-4.582,-4.5862,-4.584,-4.5862,-4.5867,-4.5872,-4.5876,-4.5727,-4.587,-4.587,-4.5869,-4.5869,-4.5869,0,-4.5501,-4.5518,-4.5563,-4.5608,-4.5645,-4.5624,-4.5658,-4.569,-4.574,-4.5767,-4.5805,-4.5862,-4.5907,-4.5921,-4.5964,-4.5995,-4.5986,-4.6006,-4.6002,-4.6006,-4.5895,-4.5877,-4.6012,-4.6012,-4.6012,-4.6012,-4.6012,-4.6012,-4.558,-4.5652,-4.5655,-4.5737,-4.5753,-4.5808,-4.5829,-4.5855,-4.5876,-4.5942,-4.5979,-4.5988,-4.6009,-4.6053,-4.6092,-4.6095,-4.611,-4.6134,-4.6132,-4.6028,-4.6014,-4.6,-4.5983,-4.6138,-4.6138,-4.6238,-4.6239,-4.624]}]]